Temperature
17 16 16 16 16 15 15 15 15 14 14 14 14 14 14 14 13 13 13 13 13 13 13 13 13 13 12 12 12 12 12 13 13 13 13 13 13 13 13 14 14 14 14
16 16 16 16 16 15 15 15 14 14 14 14 14 13 13 13 13 13 13 13 13 13 13 13 12 12 12 12 12 12 12 12 12 12 13 12 12 12 13 13 13 13 14
16 16 16 16 15 15 15 14 14 14 14 14 13 13 13 13 13 13 13 13 12 12 12 12 12 12 12 12 12 12 12 12 12 12 12 12 12 12 12 12 13 13 13
16 16 16 15 15 15 14 14 14 14 14 13 13 13 13 13 13 13 13 12 12 12 12 12 12 12 12 11 11 11 11 11 11 11 11 11 11 11 11 12 12 12 12
16 16 15 15 15 15 14 14 14 14 13 13 13 13 13 13 13 12 12 12 12 12 12 12 12 12 12 11 11 11 11 11 11 11 11 11 11 11 11 11 11 11 12
16 16 15 15 15 15 14 14 14 14 13 13 13 12 12 12 13 13 12 12 11 11 11 11 11 11 11 11 11 11 11 10 10 10 10 11 11 11 10 10 10 10 11
16 15 15 15 15 14 14 14 13 13 13 13 12 12 12 12 12 12 12 12 11 11 11 11 11 10 11 10 10 10 10 10 10 10 10 10 10 10 10 10 10 10 10
15 15 15 15 15 14 14 14 13 13 13 12 12 12 12 12 12 12 12 11 11 11 10 10 10 10 10 10 10 9 9 9 10 9 9 9 9 9 9 9 9 9 10
15 15 15 15 14 14 14 13 13 13 12 12 12 12 11 11 12 11 11 10 10 10 10 10 10 10 10 10 9 9 9 9 9 9 9 9 9 9 9 9 8 8 9
16 15 15 14 14 14 13 13 13 12 12 12 12 11 11 11 11 11 11 10 10 10 9 9 10 10 9 9 9 8 8 9 9 9 9 9 9 9 9 8 8 8 8
15 15 14 14 14 13 13 13 12 12 11 11 11 11 11 11 10 10 10 10 9 9 9 9 9 9 9 9 9 8 8 8 8 8 8 8 8 8 8 8 8 7 7
15 14 14 14 13 13 13 12 12 11 11 11 10 10 10 10 10 10 10 10 9 9 9 8 8 9 9 9 8 8 8 8 7 7 8 8 8 8 7 7 7 7 7
15 14 14 13 13 13 12 12 11 11 11 10 10 10 10 9 9 9 9 9 9 8 8 8 8 8 8 8 8 8 8 7 7 7 7 7 7 7 7 7 7 6 6
15 14 13 13 12 12 12 11 11 11 10 10 10 10 9 9 9 9 8 8 8 8 8 8 8 8 8 8 7 7 7 7 6 6 6 6 6 6 6 6 6 6 6
14 14 13 12 12 12 11 11 11 11 10 10 10 9 9 9 9 9 8 8 8 7 7 7 7 7 7 7 7 7 6 6 6 6 6 6 5 5 5 5 5 5 5
13 13 13 12 12 12 11 11 11 11 10 10 10 9 9 9 8 8 8 8 8 7 7 6 6 6 6 6 6 6 6 6 5 5 5 5 5 5 5 5 4 4 4
13 13 13 12 12 11 11 10 10 10 10 10 9 9 9 9 8 8 8 8 7 7 6 6 6 6 6 6 6 5 5 5 5 5 5 4 4 4 4 4 4 4 4
13 12 12 12 12 11 11 10 10 10 9 9 9 9 9 8 8 8 7 7 7 6 6 6 6 6 5 5 5 5 5 5 4 4 4 4 4 4 4 4 4 3 3
12 12 12 12 11 11 10 10 10 9 9 9 8 8 8 8 8 7 7 7 6 6 6 6 5 5 5 5 5 5 4 4 4 4 3 3 3 3 3 3 3 3 3
12 12 12 11 11 10 10 10 9 9 9 8 8 8 8 7 7 7 7 6 6 6 6 5 5 5 5 5 4 4 4 4 3 3 3 3 3 3 3 3 2 2 2
12 12 11 11 10 10 10 9 9 9 8 8 8 8 8 7 7 6 6 6 6 6 5 5 5 5 4 4 4 4 3 3 3 3 3 3 2 2 2 2 2 2 2
11 11 11 10 10 10 9 9 9 8 8 8 8 7 7 7 6 6 6 6 6 5 5 5 5 4 4 4 4 3 3 3 3 2 2 2 2 2 2 1 1 2 1
11 10 10 10 10 9 9 8 8 8 8 7 7 7 7 6 6 6 6 5 5 5 5 4 4 4 4 3 3 3 3 2 2 2 2 1 1 1 1 1 1 1 1
10 10 10 9 9 9 8 8 8 7 7 7 7 6 6 6 6 5 5 5 5 5 4 4 4 4 3 3 3 2 2 2 2 1 1 1 1 1 1 1 1 1 1
10 9 9 9 8 8 8 8 7 7 7 6 6 6 6 6 5 5 5 4 4 4 4 3 3 3 3 2 2 2 2 2 1 1 1 0 0 0 0 0 0 0 0
9 9 8 8 8 7 7 7 7 6 6 6 6 6 5 5 5 4 4 4 4 3 3 3 3 2 2 2 2 2 2 1 1 1 0 0 -0 -0 -0 -0 -0 -0 -0
Wind_Speed
7 7 6 5 4 4 3 3 2 3 3 3 3 3 4 4 4 5 5 5 6 6 6 7 7 7 5 4 4 4 4 4 4 5 5 6 7 8 8 9 8 7 5
7 7 6 6 5 4 4 3 3 3 3 3 4 4 4 4 4 5 5 5 5 6 6 6 6 5 6 6 5 5 4 5 5 6 6 6 8 8 8 8 7 7 7
8 8 7 6 5 4 4 3 3 3 3 3 4 4 4 4 3 3 4 4 4 5 5 6 6 6 6 5 5 5 5 5 5 5 6 6 6 7 8 7 7 7 8
9 8 7 7 6 5 5 4 3 3 3 3 3 4 4 3 3 3 3 3 3 4 4 5 6 6 7 7 5 6 6 6 5 6 6 6 6 7 7 7 8 7 7
10 9 8 7 6 6 5 4 4 3 2 3 3 3 3 3 4 4 3 3 3 3 4 4 5 6 7 7 6 7 7 6 6 6 6 7 7 7 8 8 9 9 8
10 9 8 7 7 6 5 5 4 3 3 3 2 3 3 3 6 5 5 3 3 3 4 4 4 4 4 3 4 6 7 7 8 7 7 8 9 9 8 8 9 9 9
10 10 9 8 8 7 6 5 4 4 3 2 2 2 2 4 4 4 5 4 3 4 4 5 4 4 6 7 5 5 6 5 7 9 10 10 11 10 11 11 11 11 11
11 10 9 9 8 7 6 5 4 3 3 2 1 1 1 3 4 3 5 4 3 3 4 5 5 6 7 9 9 8 8 7 7 8 9 10 11 11 11 12 13 13 12
12 11 10 10 9 8 7 6 4 3 3 2 2 1 1 0 2 3 5 3 3 4 4 5 6 6 7 9 9 9 9 8 7 8 11 13 14 14 12 10 10 10 11
12 11 11 10 9 8 7 6 5 4 3 3 2 2 1 1 2 3 6 3 4 4 4 4 3 5 8 10 9 9 10 10 11 11 10 11 11 10 9 10 10 10 11
12 11 10 10 9 8 7 6 5 4 4 3 3 2 2 2 1 1 5 4 4 5 5 5 4 4 8 10 11 9 10 12 12 11 10 10 10 9 9 9 9 10 11
12 11 11 10 9 7 7 6 5 5 4 4 3 3 2 2 2 1 3 5 7 6 6 6 5 7 10 11 10 9 12 12 9 9 9 9 9 10 10 11 13 13 13
13 12 11 10 9 8 8 7 6 5 4 4 3 3 3 2 2 3 5 6 7 6 6 6 9 11 11 10 8 10 11 9 9 9 10 10 10 10 11 10 12 13 14
13 12 11 11 10 9 7 7 6 5 5 5 4 4 4 3 3 3 4 4 6 7 7 7 9 11 10 9 10 8 8 8 9 10 10 10 10 10 10 10 11 11 11
14 12 11 10 9 9 8 7 7 6 5 5 5 5 5 5 3 3 5 6 6 7 8 8 8 8 8 8 8 8 8 8 9 9 10 11 11 11 11 11 10 11 12
13 12 10 9 8 8 8 7 6 7 5 7 7 7 6 5 5 5 7 8 9 9 8 8 9 9 9 9 9 9 9 9 10 10 11 11 11 12 12 12 11 12 12
13 11 9 9 9 9 8 8 7 7 9 10 10 10 10 8 8 8 9 9 10 9 8 9 9 9 9 10 10 10 10 10 10 11 11 12 12 12 12 13 12 12 12
13 11 10 9 9 9 9 8 8 8 7 7 9 12 12 11 10 10 9 8 8 8 8 9 9 10 10 10 10 11 11 11 11 11 12 12 12 13 13 13 13 14 13
12 9 9 9 8 9 8 8 8 9 8 8 7 7 10 11 12 12 10 8 9 9 9 10 10 10 10 11 11 11 12 12 12 12 12 13 13 13 13 14 14 15 14
10 10 9 9 8 8 8 9 9 9 9 9 9 8 7 8 8 9 9 9 10 10 10 10 11 11 11 11 11 11 12 12 13 13 13 13 13 13 14 15 15 14 14
9 9 11 9 9 9 9 9 9 9 9 9 9 9 8 9 10 11 10 10 10 11 11 11 11 11 11 11 12 13 14 13 13 13 13 13 13 13 13 14 15 15 14
8 8 9 9 9 9 9 9 9 10 10 11 10 9 9 10 11 11 11 11 11 11 11 11 12 11 11 12 12 13 14 14 14 14 14 14 14 14 14 14 14 14 14
8 8 9 9 9 9 9 10 10 10 10 11 10 10 9 10 11 11 11 11 11 11 11 11 12 12 12 13 13 13 14 14 14 15 15 15 14 14 14 15 17 17 16
8 9 9 9 9 9 10 10 10 10 11 11 11 11 11 11 11 12 12 11 11 11 12 12 13 15 18 16 15 15 16 16 17 15 18 17 16 15 15 15 16 18 17
8 8 9 9 9 9 10 10 10 11 11 11 11 11 11 11 11 11 11 11 13 13 14 14 14 15 18 19 19 18 18 18 19 18 17 15 17 18 17 18 16 17 17
9 9 9 8 9 9 10 10 10 11 11 11 10 11 11 11 11 11 11 12 12 12 13 14 16 18 19 19 20 20 19 19 20 21 18 15 17 17 17 16 19 17 18
Wind_Direction
160 153 149 143 138 135 118 102 89 77 74 66 62 58 58 56 59 57 44 40 37 40 37 37 31 19 15 15 9 4 1 348 333 336 345 347 346 345 347 343 336 328 329
160 156 152 147 148 143 129 118 103 88 77 70 72 69 64 57 53 53 46 41 38 36 33 30 26 25 20 13 4 2 1 349 335 332 334 345 343 343 341 335 334 333 325
158 158 156 155 150 143 134 122 111 100 91 81 74 67 62 56 51 42 39 35 38 35 27 20 17 18 14 14 4 0 353 348 337 325 333 338 331 339 335 331 331 330 322
159 160 158 154 150 145 135 130 122 111 100 87 76 70 63 54 42 36 32 30 32 28 21 17 12 10 5 360 356 353 346 340 336 329 327 330 329 335 330 330 327 327 320
162 162 159 154 148 144 139 136 126 114 106 94 84 75 68 54 39 24 28 22 18 17 14 13 20 18 11 359 350 344 340 333 330 326 324 325 326 329 330 325 318 316 312
166 162 155 156 151 149 146 140 133 126 115 103 94 84 73 58 50 20 345 355 354 356 358 354 359 0 356 327 328 325 323 322 325 319 316 316 321 324 323 315 313 311 308
166 162 162 162 159 158 153 149 148 146 132 123 109 94 76 66 56 22 341 328 337 344 343 344 345 348 337 337 322 288 287 280 290 302 306 311 314 319 316 310 306 302 298
167 166 166 166 164 161 160 160 167 161 149 155 149 125 77 55 43 8 321 309 324 332 333 333 330 336 350 339 325 320 317 316 308 298 303 306 309 311 307 301 299 295 291
172 173 172 171 168 167 167 170 170 169 169 179 180 197 227 99 56 348 308 312 313 320 326 331 329 329 359 334 317 315 314 313 301 285 288 289 293 292 292 294 294 294 294
176 176 174 173 172 173 175 175 173 178 184 191 195 225 246 287 62 340 306 298 306 314 318 318 350 334 337 326 315 314 312 316 316 308 297 291 291 292 279 282 291 292 294
173 173 173 174 176 175 175 177 180 185 192 206 212 227 242 274 205 306 308 299 305 306 309 311 328 347 321 314 306 305 312 312 305 303 302 302 302 302 300 295 291 288 289
168 171 175 175 176 175 177 183 188 191 200 212 223 231 241 245 280 272 293 293 303 297 300 305 320 327 311 304 300 304 302 298 296 298 300 302 304 305 304 303 297 291 285
170 175 178 179 180 182 184 187 193 200 213 222 228 240 247 259 241 223 255 269 278 282 291 306 302 298 295 290 283 289 291 292 297 298 299 301 304 303 304 302 298 295 292
176 180 182 184 186 189 194 198 203 208 216 225 233 243 253 259 269 277 280 273 257 266 282 282 264 264 264 274 285 286 289 294 297 296 297 299 300 300 299 299 298 298 296
182 184 188 191 192 196 199 206 213 217 225 231 238 247 254 260 280 310 292 291 297 302 304 294 294 296 297 297 298 299 298 296 294 294 296 298 298 298 299 299 296 296 294
187 189 191 193 196 201 205 210 216 232 222 229 244 254 252 255 273 272 274 281 287 291 289 285 288 291 294 298 299 299 298 298 298 298 296 295 295 297 298 297 294 292 292
193 192 193 197 199 205 210 217 223 223 223 229 232 236 245 256 256 260 267 272 272 271 273 279 284 287 290 293 294 295 296 297 296 294 293 292 292 293 294 294 293 292 291
199 196 196 200 206 210 215 221 228 233 234 236 228 225 230 240 248 253 259 267 268 261 270 276 281 284 287 289 291 291 293 294 293 291 291 291 290 289 291 291 292 292 293
201 201 202 205 209 215 219 224 229 235 240 244 247 231 221 233 239 243 244 258 269 273 274 276 278 281 283 285 287 288 289 289 289 289 288 287 287 289 290 290 290 291 290
204 200 201 206 212 217 221 225 229 234 240 245 248 252 247 247 255 255 251 259 266 271 274 276 277 278 280 282 284 285 287 287 288 286 287 286 286 287 288 288 289 289 289
203 200 199 212 219 222 225 228 232 236 242 248 252 252 247 255 260 262 263 264 266 270 273 276 278 279 279 281 282 283 285 286 286 287 288 287 286 285 285 285 286 286 287
202 205 209 216 221 225 228 232 237 241 245 251 257 253 228 246 259 263 264 266 268 270 273 275 276 276 277 279 281 283 283 285 286 286 288 289 288 286 285 285 285 286 286
207 211 215 220 223 223 228 236 239 243 248 252 256 259 256 255 259 262 266 270 273 274 275 274 275 276 277 278 279 279 281 283 286 289 290 289 287 285 284 284 284 286 285
211 215 220 224 226 229 233 238 242 247 251 254 257 259 260 260 263 266 269 273 274 275 276 276 275 276 279 280 280 279 280 283 288 289 290 287 286 284 283 282 282 283 283
215 219 224 229 231 235 239 244 248 251 253 256 259 262 264 265 266 268 270 272 275 276 278 279 278 278 280 281 282 282 283 283 281 284 289 285 283 281 280 280 280 283 281
219 224 229 234 237 241 244 247 251 254 256 258 261 263 266 267 268 270 272 273 276 278 281 281 280 281 282 284 285 287 287 283 281 279 280 282 280 278 278 278 280 280 282
Height
1568 1569 1570 1571 1571 1571 1571 1571 1571 1571 1570 1570 1569 1569 1568 1567 1566 1565 1564 1563 1562 1562 1561 1559 1558 1556 1556 1555 1553 1553 1552 1551 1549 1548 1547 1545 1542 1541 1539 1537 1536 1535 1534
1567 1568 1569 1570 1570 1571 1571 1571 1571 1571 1570 1570 1569 1569 1568 1567 1566 1566 1564 1563 1563 1562 1561 1560 1558 1557 1555 1555 1553 1552 1551 1550 1549 1547 1546 1544 1541 1539 1537 1535 1534 1533 1532
1565 1566 1568 1569 1569 1570 1570 1570 1570 1570 1570 1569 1569 1568 1568 1567 1566 1565 1565 1564 1563 1562 1561 1560 1559 1557 1556 1554 1553 1552 1550 1549 1547 1546 1544 1542 1540 1538 1535 1534 1533 1530 1529
1563 1565 1566 1567 1568 1568 1569 1569 1569 1569 1569 1569 1568 1568 1567 1566 1566 1565 1564 1564 1563 1562 1560 1559 1558 1557 1555 1554 1552 1551 1549 1548 1546 1545 1543 1541 1539 1536 1534 1532 1530 1528 1526
1561 1563 1564 1565 1566 1567 1567 1567 1568 1568 1568 1568 1568 1567 1566 1565 1565 1564 1564 1563 1562 1561 1560 1559 1557 1555 1554 1552 1551 1549 1548 1547 1545 1543 1541 1540 1538 1535 1533 1530 1528 1525 1523
1559 1561 1562 1563 1564 1565 1566 1566 1566 1567 1567 1567 1566 1566 1565 1565 1564 1563 1562 1562 1561 1560 1559 1558 1556 1554 1552 1550 1549 1547 1546 1545 1543 1542 1540 1538 1536 1533 1530 1528 1526 1523 1520
1557 1559 1560 1561 1562 1563 1564 1565 1565 1565 1565 1565 1565 1565 1564 1564 1563 1562 1561 1560 1560 1559 1558 1556 1554 1553 1551 1549 1547 1545 1544 1542 1540 1539 1537 1535 1533 1531 1528 1525 1522 1520 1517
1554 1556 1558 1559 1560 1561 1562 1563 1563 1564 1564 1564 1564 1563 1563 1562 1561 1560 1559 1559 1558 1557 1555 1554 1553 1551 1549 1547 1545 1543 1542 1540 1537 1536 1534 1531 1529 1526 1523 1521 1518 1515 1512
1551 1553 1555 1557 1558 1559 1560 1561 1561 1562 1562 1562 1562 1561 1561 1560 1559 1558 1557 1557 1556 1555 1553 1552 1550 1548 1546 1544 1542 1540 1538 1536 1534 1531 1529 1526 1523 1521 1518 1516 1513 1511 1508
1548 1550 1552 1554 1555 1557 1558 1559 1559 1559 1559 1560 1559 1559 1559 1558 1557 1556 1555 1555 1554 1553 1551 1549 1547 1545 1543 1541 1539 1537 1535 1532 1530 1527 1524 1522 1519 1517 1514 1512 1510 1507 1504
1545 1547 1549 1551 1553 1554 1555 1556 1556 1557 1557 1557 1557 1557 1556 1556 1554 1553 1552 1552 1551 1550 1548 1547 1544 1542 1539 1537 1535 1533 1530 1528 1525 1523 1520 1517 1515 1512 1510 1507 1505 1502 1499
1541 1544 1546 1548 1550 1551 1552 1553 1554 1554 1554 1555 1554 1554 1554 1553 1552 1550 1549 1548 1547 1546 1544 1543 1541 1538 1535 1533 1530 1528 1526 1523 1521 1518 1516 1513 1510 1507 1504 1502 1499 1496 1493
1538 1540 1543 1545 1546 1548 1549 1550 1551 1551 1552 1552 1552 1551 1551 1550 1549 1547 1546 1545 1543 1542 1540 1538 1536 1533 1531 1528 1526 1523 1521 1519 1516 1514 1511 1508 1505 1502 1498 1495 1491 1488 1485
1534 1537 1539 1541 1543 1544 1545 1546 1547 1548 1548 1548 1548 1548 1547 1546 1546 1544 1543 1542 1540 1538 1536 1534 1531 1528 1526 1523 1521 1519 1517 1514 1512 1509 1505 1502 1499 1496 1493 1489 1486 1482 1478
1530 1533 1535 1537 1539 1540 1541 1542 1543 1544 1544 1544 1544 1544 1543 1543 1542 1540 1539 1537 1536 1534 1531 1529 1527 1525 1522 1520 1517 1515 1512 1510 1507 1504 1501 1497 1494 1491 1487 1484 1480 1476 1473
1526 1528 1531 1533 1534 1536 1537 1538 1538 1539 1539 1539 1539 1539 1538 1538 1537 1535 1534 1532 1531 1529 1527 1524 1522 1520 1518 1515 1512 1510 1507 1505 1502 1499 1496 1492 1489 1485 1481 1478 1475 1471 1467
1522 1524 1526 1528 1529 1531 1532 1533 1534 1534 1534 1534 1534 1534 1533 1532 1532 1530 1529 1527 1525 1523 1521 1519 1517 1515 1512 1510 1507 1504 1502 1499 1496 1493 1489 1486 1483 1479 1475 1472 1468 1465 1461
1517 1519 1521 1522 1524 1526 1527 1528 1528 1529 1529 1528 1528 1528 1527 1527 1526 1525 1523 1521 1519 1518 1516 1514 1512 1509 1507 1504 1501 1498 1495 1492 1489 1486 1483 1480 1476 1473 1469 1465 1462 1458 1454
1511 1513 1515 1517 1519 1520 1521 1522 1522 1523 1523 1523 1522 1522 1521 1520 1520 1519 1517 1515 1514 1512 1510 1508 1506 1503 1501 1498 1495 1492 1489 1486 1483 1479 1476 1473 1469 1466 1462 1458 1455 1451 1447
1505 1508 1510 1511 1513 1514 1515 1516 1516 1516 1516 1516 1516 1516 1515 1514 1513 1512 1511 1509 1507 1505 1503 1501 1499 1496 1494 1491 1488 1485 1482 1479 1476 1472 1469 1465 1462 1458 1454 1451 1447 1444 1439
1500 1502 1504 1506 1507 1508 1509 1509 1510 1510 1510 1510 1509 1509 1508 1507 1506 1505 1504 1502 1500 1498 1496 1494 1492 1489 1486 1484 1481 1478 1475 1471 1468 1465 1461 1458 1454 1450 1447 1443 1439 1436 1432
1494 1496 1497 1499 1500 1501 1502 1503 1503 1503 1503 1503 1502 1502 1500 1499 1498 1497 1496 1494 1493 1491 1489 1486 1484 1481 1479 1476 1473 1470 1466 1463 1460 1457 1453 1449 1446 1442 1438 1434 1431 1427 1423
1488 1490 1491 1493 1493 1494 1495 1496 1496 1496 1496 1495 1495 1494 1493 1492 1491 1489 1488 1486 1485 1483 1481 1478 1475 1473 1470 1468 1464 1461 1458 1455 1452 1448 1444 1440 1436 1433 1430 1426 1422 1419 1415
1482 1484 1485 1486 1487 1487 1488 1488 1489 1489 1488 1488 1487 1486 1486 1484 1483 1482 1480 1478 1477 1474 1472 1470 1467 1464 1461 1459 1455 1452 1449 1446 1443 1439 1435 1431 1427 1423 1420 1416 1413 1410 1406
1476 1477 1478 1479 1480 1481 1481 1481 1481 1481 1481 1480 1480 1479 1478 1477 1475 1474 1472 1470 1468 1466 1463 1461 1458 1455 1452 1449 1446 1443 1440 1436 1433 1429 1425 1421 1417 1413 1410 1407 1403 1400 1397
1470 1471 1472 1473 1473 1473 1474 1474 1474 1473 1473 1472 1472 1471 1470 1468 1467 1465 1464 1462 1460 1457 1454 1452 1449 1446 1443 1440 1436 1433 1430 1426 1422 1419 1415 1410 1406 1403 1400 1396 1393 1390 1387